RH
9 9 10 10 13 19 26 42 65 73 78 94 100 99 101 100 101 103 102 101 101 101 100 102 96 87 90 93 90 90 95 91 82 81 75 58 42 33 26 21 15 11 11 11 11 11 11 10 9 9 10 12
9 10 9 9 13 14 21 36 61 84 88 97 102 99 101 100 101 101 98 100 101 100 100 101 100 99 96 87 82 80 81 84 88 95 97 82 65 54 42 33 28 20 16 13 12 13 13 12 10 9 9 10
8 10 10 10 14 16 36 43 50 89 102 100 103 100 101 100 102 102 98 99 100 101 101 102 100 100 100 95 94 90 74 63 72 92 105 100 86 77 66 51 41 33 29 23 16 14 15 14 12 11 10 9
10 12 11 11 17 25 57 66 55 85 103 101 102 100 101 100 102 102 99 99 99 102 101 101 101 100 101 100 101 101 85 59 51 65 84 97 92 87 86 77 63 47 39 36 30 21 17 16 16 13 12 11
10 13 12 11 19 22 44 64 63 77 94 105 105 98 101 100 101 101 98 99 99 103 103 101 102 100 98 100 103 101 96 79 60 50 55 75 81 78 84 89 87 73 55 43 39 35 26 21 19 18 16 13
12 13 15 13 16 18 28 45 51 57 75 96 95 91 102 101 98 97 98 100 100 103 103 102 102 102 97 96 100 99 100 98 88 67 50 53 61 66 72 80 89 91 84 65 49 43 40 34 27 23 21 17
13 14 15 15 15 16 22 30 33 39 56 79 85 84 92 94 90 92 100 102 100 102 102 102 101 102 105 101 97 97 98 99 101 93 71 51 48 60 67 70 73 78 91 94 80 62 51 47 40 33 26 21
14 15 16 16 16 15 18 23 29 35 44 63 82 86 81 79 77 80 94 101 99 101 101 102 101 100 106 108 103 100 99 96 95 99 95 72 54 58 63 64 64 61 68 85 98 91 75 61 53 49 41 33
14 15 17 17 16 16 17 21 26 35 42 50 64 76 79 78 73 68 77 93 100 100 100 101 102 100 101 105 106 104 101 99 96 96 100 90 73 70 69 63 61 59 56 59 74 88 90 80 67 63 60 54
16 16 18 19 18 17 17 20 23 29 39 47 54 63 74 77 72 62 61 79 98 101 101 100 100 101 99 101 104 105 103 102 102 101 101 96 88 85 83 75 64 61 59 55 59 68 77 81 79 75 74 72
18 18 19 20 21 20 18 19 23 27 33 43 55 64 74 77 68 56 52 64 85 98 101 98 97 100 101 100 101 103 104 103 102 102 102 102 100 95 93 91 80 68 62 57 60 65 66 68 74 83 87 86
19 19 21 22 22 23 21 20 22 28 33 36 44 53 65 77 75 63 54 53 65 83 96 96 91 93 100 101 101 101 101 100 100 103 105 106 110 105 99 99 93 83 73 62 59 65 70 68 66 73 84 89
21 20 22 23 24 25 24 24 23 25 31 33 35 41 48 62 72 68 60 55 57 68 83 95 92 84 91 99 101 102 100 98 98 103 107 106 109 110 105 103 99 92 84 73 64 60 65 72 69 65 71 77
22 23 23 24 26 27 27 26 26 26 29 32 36 44 49 53 59 59 59 60 60 62 70 84 92 87 85 92 98 101 101 100 99 100 103 103 105 107 106 105 104 101 96 87 78 72 69 72 74 71 71 75
23 24 25 25 26 29 31 30 29 29 29 32 36 45 54 60 61 58 62 66 65 66 67 70 81 89 88 88 91 97 101 101 101 100 100 102 103 103 103 103 105 107 107 101 96 96 93 89 89 88 85 85
26 25 25 26 28 29 32 34 33 32 31 32 33 37 46 58 64 63 64 70 69 70 71 66 68 81 93 96 94 93 95 98 100 101 101 101 101 101 101 102 103 104 106 105 101 103 106 104 104 102 99 97
30 28 26 26 28 30 32 34 36 36 36 35 35 34 37 44 52 55 56 61 63 65 71 69 64 68 80 94 100 97 94 92 92 95 98 101 101 101 101 101 101 101 102 103 101 100 103 104 103 103 103 108
32 32 31 29 27 30 33 34 35 38 39 38 38 37 37 39 41 43 46 54 62 67 73 79 77 70 66 71 81 88 91 91 90 88 89 94 99 100 101 102 101 101 100 101 101 101 101 101 102 102 103 109
34 33 34 34 31 30 33 34 35 37 40 41 42 41 40 39 40 40 41 48 62 71 76 83 86 80 73 66 63 66 71 78 87 91 91 93 97 99 100 101 100 101 102 101 100 100 100 102 105 102 101 106
39 37 36 36 35 33 34 35 36 36 38 40 42 44 44 41 41 42 42 44 53 64 71 76 82 84 81 73 63 57 55 58 69 82 92 97 99 100 101 101 99 98 99 101 103 105 102 101 105 102 100 104
43 42 41 40 39 37 37 37 39 39 38 39 41 44 47 46 45 44 43 44 46 53 63 69 75 82 86 81 71 61 55 54 58 65 80 95 102 103 104 104 103 100 97 96 100 106 104 101 104 102 100 102
46 45 45 46 45 42 40 40 41 44 44 42 42 44 46 49 50 49 46 46 45 46 53 61 67 73 78 83 83 75 66 62 61 61 66 80 96 105 107 106 106 106 103 98 96 100 103 103 104 101 100 101
53 49 48 49 50 49 45 42 41 45 49 48 48 47 47 48 51 52 51 50 49 47 48 52 58 62 67 78 89 91 86 78 71 65 63 67 79 94 106 109 106 105 108 105 100 100 103 104 104 102 100 100
69 62 56 53 52 53 53 50 44 43 47 51 55 55 52 51 51 53 55 54 52 51 51 50 51 55 63 74 84 90 93 91 85 75 69 66 66 74 90 106 110 107 106 106 105 107 109 107 106 105 101 101
77 76 72 66 60 57 56 58 55 49 47 47 52 58 59 58 56 54 55 56 56 54 53 52 52 53 58 66 72 78 82 88 90 84 77 73 71 70 75 92 106 111 109 103 104 109 110 108 109 108 103 104
65 72 76 75 72 67 61 61 63 60 54 49 47 52 59 63 62 59 56 57 58 58 56 54 54 55 56 59 63 69 74 79 83 83 80 79 81 80 76 80 92 104 109 104 104 106 102 98 102 107 108 106
54 58 63 67 71 72 68 65 65 66 63 58 51 49 53 58 63 64 62 59 58 58 59 58 57 56 57 57 58 61 65 71 76 80 83 82 84 83 77 77 81 90 99 102 104 105 99 94 92 96 104 108
50 52 53 56 59 63 66 67 66 67 67 64 59 56 55 55 57 63 66 66 62 59 60 62 62 60 60 60 60 59 59 61 65 71 78 81 83 83 79 77 78 80 85 91 100 104 103 100 95 91 96 105
48 51 52 53 54 56 59 62 64 66 66 66 65 63 63 61 58 58 62 67 69 67 63 63 64 65 65 63 63 63 61 59 58 59 64 70 76 82 86 83 77 74 75 78 84 93 101 104 102 98 96 97
51 52 54 54 56 56 57 58 62 64 64 65 68 68 70 72 67 62 60 62 68 72 71 68 66 65 67 67 67 67 66 64 62 59 58 59 63 71 81 83 77 72 73 74 72 75 88 101 105 103 101 98
51 52 53 55 57 58 59 61 63 64 64 65 68 70 72 76 77 73 67 63 64 68 74 76 74 70 67 69 72 73 70 67 66 65 63 60 59 59 64 72 75 73 74 76 74 70 73 87 101 104 103 102
Wind_Speed
54 54 54 49 45 45 45 50 56 58 60 60 60 61 61 62 62 64 65 66 67 66 65 63 61 62 61 62 65 66 67 70 69 69 70 71 72 74 75 75 77 78 79 80 81 82 84 86 88 91 93 96
54 53 53 51 44 44 45 49 54 55 57 61 62 62 64 66 68 70 70 70 71 71 69 67 63 61 62 63 64 65 68 71 71 70 70 71 72 73 74 75 76 78 79 80 80 81 83 85 87 89 92 94
54 52 53 51 44 43 43 46 53 54 55 60 66 67 69 71 72 75 74 72 74 75 73 70 66 62 63 64 63 66 71 73 73 72 72 73 73 73 73 74 75 76 77 78 80 81 82 83 85 88 89 92
53 52 53 50 45 44 43 48 55 59 57 59 68 73 73 74 76 79 77 75 76 77 78 76 72 68 68 68 67 67 70 74 74 74 74 74 75 74 73 73 75 76 77 77 79 81 82 82 84 86 88 90
53 52 53 51 50 51 51 56 61 66 66 63 73 78 77 78 79 82 81 78 78 79 81 81 79 77 75 74 74 71 67 69 72 74 75 75 77 76 75 74 74 75 77 78 78 80 81 82 83 84 86 88
54 53 53 53 54 55 56 62 66 69 72 74 80 82 80 81 82 84 84 82 81 82 83 84 84 83 81 79 80 78 71 65 66 72 74 75 77 77 76 76 76 76 76 78 79 79 80 81 82 83 85 87
54 54 54 54 56 58 60 64 68 71 74 78 81 82 83 85 84 85 85 85 84 85 85 86 85 85 86 84 83 83 80 73 68 70 73 75 76 76 76 78 79 78 77 78 79 80 80 80 81 82 84 85
55 55 55 56 58 61 62 64 67 71 75 78 81 82 84 86 86 85 86 86 86 86 87 88 87 87 88 88 87 86 86 84 80 75 74 76 76 75 77 79 80 80 79 79 79 80 80 80 80 80 81 83
56 55 56 57 59 60 63 66 68 71 75 78 81 83 85 87 88 87 86 87 87 87 87 88 89 88 88 89 90 90 89 89 88 85 81 80 79 77 78 79 80 80 80 80 80 80 80 80 80 78 79 80
55 56 57 57 59 60 63 66 69 71 74 77 81 83 86 89 90 89 88 88 89 89 89 90 91 91 90 90 91 92 92 91 91 91 89 86 83 80 79 80 81 81 81 80 79 80 81 81 80 78 78 78
55 56 57 58 59 61 63 65 69 72 74 77 80 83 87 89 91 90 88 89 91 92 93 93 93 93 92 91 92 93 93 93 93 93 93 92 88 85 83 84 84 83 82 81 78 79 80 81 80 79 78 78
56 55 57 59 59 61 63 65 68 71 75 78 80 82 86 89 91 91 90 90 92 94 96 96 96 95 95 94 94 95 96 95 95 95 96 95 93 91 88 88 88 87 86 84 81 80 80 81 81 80 79 79
57 56 57 59 60 62 63 64 67 71 75 78 79 81 84 87 90 92 92 92 93 95 97 98 99 98 97 98 97 97 98 97 97 97 97 96 95 93 92 91 91 90 89 88 86 83 82 83 83 83 82 81
57 57 57 58 60 62 63 65 67 70 74 77 79 81 83 86 89 90 91 93 95 96 98 99 100 100 99 100 100 100 99 99 98 98 98 96 95 94 93 93 93 93 92 91 89 87 85 85 85 86 85 83
59 58 58 59 60 61 63 66 67 69 72 76 79 82 84 86 88 89 90 93 95 96 98 100 101 102 102 102 102 102 102 101 100 99 99 98 96 95 94 95 95 95 95 95 93 90 88 86 86 86 86 85
61 60 60 60 60 61 63 66 68 70 72 74 78 81 85 88 90 90 90 92 95 96 98 100 101 103 104 105 105 105 105 104 103 101 101 100 99 97 96 96 96 97 97 97 95 93 91 88 86 86 86 86
63 63 62 61 61 61 63 66 68 70 72 74 77 80 83 87 91 92 92 93 94 96 98 99 100 102 105 107 109 109 109 108 106 104 103 102 101 100 99 98 98 97 97 98 97 95 92 90 88 86 86 86
66 64 64 63 63 62 63 66 68 70 72 74 76 79 82 85 89 91 92 93 94 95 97 99 100 101 104 107 110 111 111 110 109 107 105 104 104 103 102 101 100 98 98 98 97 96 94 93 91 88 87 86
70 68 66 66 65 65 65 66 68 69 72 74 76 78 81 84 87 90 91 93 95 97 97 99 101 102 104 106 109 111 111 110 109 109 108 106 105 105 105 105 103 102 100 99 98 97 96 95 93 90 87 86
74 72 70 69 68 67 67 68 69 70 71 74 76 78 80 83 85 88 90 92 95 98 99 99 101 103 105 106 108 109 109 108 108 109 109 109 108 107 106 106 106 105 103 101 100 98 97 95 93 91 88 86
77 76 75 73 72 70 70 71 72 72 72 74 75 77 80 82 85 88 90 91 94 96 99 101 102 104 105 106 107 108 107 106 106 108 109 109 109 108 107 107 107 106 105 103 102 100 98 96 94 91 90 88
80 79 79 78 77 75 73 73 74 74 75 75 76 78 79 81 84 87 89 91 93 95 98 101 104 105 105 106 107 108 107 106 107 108 108 108 109 110 109 108 107 106 105 104 103 101 100 98 96 94 92 90
83 82 82 81 81 79 78 77 76 76 77 78 78 79 80 81 83 86 89 91 93 95 97 100 103 104 105 105 107 109 109 108 108 109 108 108 109 110 110 109 108 108 107 106 104 103 102 101 99 97 95 93
85 85 85 85 84 83 82 81 80 79 79 80 80 81 82 83 84 86 88 91 93 95 97 99 101 102 103 105 108 110 111 111 110 110 109 109 109 109 109 110 110 110 110 108 106 105 104 103 102 100 99 97
87 87 87 88 88 87 86 85 85 83 83 83 83 83 84 85 86 87 89 91 93 95 97 98 100 101 103 106 109 111 112 112 112 112 111 110 110 109 109 110 111 112 112 110 109 108 107 105 104 102 100 99
89 89 90 90 90 91 90 89 88 88 87 87 86 86 86 87 89 90 90 92 93 95 97 98 99 101 103 106 109 111 112 113 114 113 112 111 111 111 111 111 112 114 115 113 111 111 110 108 105 103 102 101
92 92 92 93 93 93 93 93 92 91 91 91 90 89 89 90 91 92 93 94 95 95 96 97 99 100 102 104 107 110 113 114 115 115 114 113 113 113 113 112 113 115 116 116 115 114 112 109 107 105 104 103
96 96 95 95 95 95 95 96 95 95 95 95 95 93 92 93 93 94 95 96 97 98 98 98 99 100 101 103 106 108 111 114 115 116 116 116 115 115 115 114 114 116 117 118 119 117 113 110 108 107 107 107
100 100 99 99 98 98 98 98 99 99 98 98 98 97 96 96 96 96 97 97 98 100 100 100 101 101 102 103 105 107 109 112 114 115 116 117 117 116 117 118 118 118 118 119 119 118 116 112 108 106 109 111
104 104 103 103 102 102 102 101 101 102 101 101 101 100 99 99 99 99 99 99 100 101 102 103 103 104 103 104 105 106 109 110 112 113 114 115 117 117 118 120 121 119 119 119 119 118 116 115 112 109 109 111
108 107 107 106 106 105 105 104 104 104 104 104 104 103 102 102 102 103 103 102 102 103 104 105 106 106 106 105 106 107 109 110 111 111 112 113 115 116 118 121 122 122 121 121 121 119 117 116 117 115 112 111
Wind_Direction
267 265 262 257 251 249 244 236 237 239 239 237 235 234 235 236 236 236 233 232 232 234 236 239 243 245 245 244 242 241 241 241 242 243 244 243 242 242 241 240 239 238 238 238 238 238 238 238 238 237 237 237
266 264 261 258 251 246 243 238 237 237 238 237 234 234 234 234 235 235 234 232 232 232 234 236 238 242 245 245 244 243 241 239 239 241 243 243 242 242 241 240 240 239 239 239 238 238 239 239 239 238 238 238
267 263 260 257 251 244 238 235 234 232 234 238 235 233 233 233 234 235 234 233 233 233 233 233 233 236 240 242 244 246 244 240 237 238 240 242 242 242 242 241 241 240 240 240 240 239 239 239 239 239 239 239
266 263 259 255 247 237 228 225 225 224 227 236 238 233 232 233 234 235 234 232 233 233 234 234 231 232 235 238 240 242 245 244 240 238 238 240 241 241 242 242 242 241 240 240 240 240 240 240 240 240 240 240
266 262 259 254 246 237 229 224 223 223 220 227 235 233 231 232 233 235 235 233 232 232 234 235 234 232 233 235 236 238 243 247 245 242 239 240 242 242 242 242 242 243 242 241 240 241 241 241 241 241 241 241
265 261 258 254 248 241 234 229 228 229 223 222 230 231 230 231 232 234 236 235 234 233 234 235 236 235 235 235 236 237 239 242 246 246 242 241 242 243 243 242 242 242 243 243 241 240 241 242 242 242 242 242
264 261 257 253 249 244 237 234 233 233 229 227 229 231 231 232 232 233 235 235 235 235 235 235 236 237 237 236 237 238 238 237 240 245 246 243 242 243 244 244 243 242 241 243 243 242 241 242 242 243 243 243
264 260 257 253 250 247 242 239 236 234 233 231 231 232 233 234 234 234 233 234 234 235 236 236 236 236 236 237 238 239 240 239 239 241 245 246 245 244 244 244 244 243 242 241 243 244 243 243 242 243 244 244
264 260 257 254 251 249 246 241 238 236 235 234 233 233 234 235 236 236 234 234 234 234 235 236 236 236 236 236 238 238 239 241 242 241 243 246 247 246 246 246 245 245 244 243 243 244 244 245 244 244 244 245
264 261 258 255 252 250 247 245 242 239 237 236 236 235 235 236 237 237 236 234 233 234 234 234 235 236 237 237 237 238 238 239 241 242 243 245 246 246 247 247 247 247 246 245 245 245 244 245 245 245 245 245
263 260 258 255 253 250 248 246 244 242 240 238 237 236 235 237 239 239 238 236 234 233 234 234 234 235 236 237 237 238 238 238 239 241 243 245 246 246 246 247 248 249 248 247 246 246 246 245 245 245 245 245
263 259 257 256 253 251 249 246 244 242 241 240 239 238 237 237 238 240 240 238 236 235 234 235 235 234 235 236 237 238 238 238 238 240 242 244 246 247 246 246 247 249 249 249 247 247 248 248 247 246 245 245
264 260 257 255 254 252 250 247 245 243 242 242 242 241 240 239 239 240 241 240 239 237 236 236 236 236 235 235 236 238 239 239 239 239 241 243 244 245 246 246 246 248 249 250 250 249 249 250 250 249 248 247
263 261 258 255 253 252 251 249 246 245 243 243 242 242 242 241 241 241 241 241 241 239 238 237 237 237 237 236 236 237 239 240 240 240 240 241 242 243 244 244 245 247 248 250 251 252 252 252 252 252 251 250
264 261 259 256 253 251 251 250 248 246 244 243 242 242 242 242 242 242 241 241 242 241 240 239 238 238 238 238 238 237 238 239 239 240 241 241 241 242 242 243 244 246 248 249 250 252 253 253 252 252 252 252
265 262 259 256 254 252 250 250 249 248 246 245 243 242 241 241 242 242 242 241 242 242 242 241 240 239 239 239 239 239 238 238 239 239 240 240 241 241 241 242 243 244 246 248 250 251 252 252 251 251 252 253
265 264 261 258 255 253 251 250 249 249 248 246 245 244 242 242 242 242 242 242 242 243 243 243 242 241 240 240 240 240 240 239 239 239 239 239 240 240 241 241 242 243 245 246 248 250 251 252 251 251 252 253
267 265 263 261 258 255 253 251 249 249 249 248 247 246 244 243 243 243 243 243 243 244 243 243 243 242 242 241 241 241 241 240 240 240 240 240 240 240 241 241 242 242 243 244 246 247 249 250 250 251 252 252
270 267 264 262 260 258 255 253 251 249 248 248 248 247 246 245 245 244 244 243 243 243 243 243 243 244 243 243 243 242 242 241 241 242 242 242 241 241 242 242 242 242 243 244 244 245 246 247 248 249 250 250
271 269 267 264 261 259 258 256 254 251 249 248 248 248 248 247 247 246 245 243 243 244 244 244 244 244 245 245 245 244 244 243 242 242 242 243 243 243 243 244 244 244 243 243 244 244 245 245 246 247 247 248
271 270 268 266 263 260 258 257 256 254 252 250 248 247 247 248 248 247 246 245 243 243 244 245 245 245 245 246 247 247 246 245 244 243 242 242 243 244 244 245 245 245 245 244 244 244 244 244 245 245 245 246
270 270 269 267 265 262 259 257 256 256 254 252 250 249 247 247 247 248 248 247 246 244 243 244 245 245 246 247 248 249 248 247 246 245 243 242 242 243 244 244 245 246 246 246 245 244 244 244 244 244 244 245
270 269 268 267 266 264 262 259 256 255 255 254 253 251 249 248 247 247 248 248 247 246 245 244 245 245 246 247 248 248 249 248 247 246 245 244 242 242 243 244 244 245 245 245 245 245 244 244 244 244 244 244
269 268 268 267 266 265 263 261 259 256 254 254 253 253 252 250 249 247 247 247 247 247 247 246 245 246 246 246 247 247 248 248 248 248 247 246 244 243 242 243 244 245 245 244 244 244 244 244 244 243 243 243
267 267 267 266 266 265 264 262 261 259 256 254 252 252 252 252 251 249 248 247 247 247 247 246 246 246 246 246 246 247 248 248 248 248 248 247 247 246 244 242 242 244 244 244 244 243 243 243 243 243 243 243
266 266 265 265 265 265 264 263 261 260 259 256 254 252 252 252 252 251 250 248 248 247 247 246 246 246 246 246 246 247 248 248 248 248 248 248 247 247 246 244 243 243 243 244 244 244 243 242 242 242 243 244
267 266 265 264 264 263 263 263 262 261 260 258 256 254 252 251 251 251 251 250 249 248 248 247 247 246 246 246 246 247 247 248 248 249 249 248 248 248 247 246 245 244 243 243 243 243 244 243 242 241 242 243
267 266 265 264 264 263 263 262 262 261 260 259 258 256 254 253 251 250 250 250 250 249 248 248 247 247 246 246 246 247 247 248 248 248 248 249 248 248 248 248 246 246 245 244 243 243 243 243 243 242 242 242
268 267 266 265 264 263 262 262 261 261 260 259 258 257 256 254 253 251 250 249 249 250 249 248 247 247 246 246 246 246 247 248 248 248 248 248 249 249 249 249 248 247 246 245 244 243 242 242 243 243 243 242
268 267 266 265 264 263 263 262 261 261 260 259 258 257 256 255 254 253 251 250 249 249 249 249 248 247 246 246 246 246 247 247 248 248 248 248 249 248 248 249 249 248 248 248 247 245 243 241 241 241 242 243
268 267 266 265 264 264 263 262 261 261 260 259 258 257 256 255 255 254 253 251 250 249 248 248 248 248 247 247 247 246 246 247 247 248 248 248 249 249 248 249 250 249 249 248 248 247 245 242 240 239 240 241